User: anonymous   Login
Location: Peebles
(55.6412°N, 3.1714°W)
Time: 15:03:06
(UTC+01:00)
Language:

Cosmos 1733 - Orbit

View from above orbital plane
View from above orbital plane
View from above satellite
View from above satellite

Ground track
Ground track

The orbit data is extracted from the following two-line orbital elements,

1 16611U 86018A   22177.01416028  .00002859  00000-0  13228-3 0  9992
2 16611  82.4879  19.6342 0013172  88.8404 271.4339 15.19672360987223
Epoch (UTC): 26 June 2022 00:20:23
Eccentricity: 0.0013172
inclination: 82.4879°
perigee height: 498 km
apogee height: 516 km
right ascension of ascending node: 19.6342°
argument of perigee: 88.8404°
revolutions per day: 15.19672360
mean anomaly at epoch: 271.4339°
orbit number at epoch: 98722

The dashed part of the orbit path shows where the satellite is in the earth's shadow,  

DLR